User: anonymous   Login
Location: Bergnerzell
(49.1816°N, 10.2565°E)
Time: 10:14:22
(UTC+00:00)
Language:

Cosmos 1455 Rocket - Orbit

View from above orbital plane
View from above orbital plane
View from above satellite
View from above satellite

Ground track
Ground track

The orbit data is extracted from the following two-line orbital elements,

1 14033U 83037B   24203.72298488  .00001063  00000-0  12148-3 0  9990
2 14033  82.5054  73.1046 0016697 199.8675 160.1893 14.85035733842856
Epoch (UTC): 21 July 2024 17:21:05
Eccentricity: 0.0016697
inclination: 82.5054°
perigee height: 602 km
apogee height: 625 km
right ascension of ascending node: 73.1046°
argument of perigee: 199.8675°
revolutions per day: 14.85035733
mean anomaly at epoch: 160.1893°
orbit number at epoch: 84285

The dashed part of the orbit path shows where the satellite is in the earth's shadow,  

DLR